{"data":{"norad_id":53703,"epoch":"2026-05-25T00:56:37.260096Z","epoch_age_seconds":71420,"freshness":"FRESH","line1":"1 53703U 22107D   26145.03932014  .00001364  00000+0  10382-3 0  9990","line2":"2 53703  53.2152 261.1165 0001334  86.0592 274.0553 15.08831471206384","mean_motion":15.08831471,"eccentricity":0.0001334,"inclination_deg":53.2152,"raan_deg":261.1165,"arg_perigee_deg":86.0592,"mean_anomaly_deg":274.0553,"bstar":0.00010382,"rev_number":20638,"period_min":95.438094159424,"perigee_km":538.84661010622,"apogee_km":540.69230754944,"semimajor_km":6917.9064588278,"source":"CELESTRAK","updated_at":"2026-05-25T13:38:17.532097Z"}}